Content
SEND FEEDBACK

Daily
Averages
Monthly
Summary
France

ST.-PERE-EN-RETZ, FRANCE


Home > Europe > France
Elevation: 10 feet     Latitude: 47 18N     Longitude: 002 08W

WEATHER
 
SELECT A DAY
Number of Records: 217,848;   Date Range: 7/1/96 - 12/18/14
 
SHARE

PRINT THIS DATA

[ ← Previous Day ]
WEATHER ALMANAC - JANUARY 31, 2013
[ Next Day → ]
[ °C ]   °F
Weather ElementAverageHighLow
Temperature51 °F55.4 °F (3:00 pm)42.8 °F (12:30 am)
Dewpoint47.8 °F50 °F (11:00 am)41 °F (12:30 am)
Humidity89.1 %100 % (1:30 am)77 % (3:00 pm)
Barometer30.22 in30.30 in (12:30 am)30.15 in (11:00 pm)
Wind Speed13.9 mph21.9 mph (3:00 pm)
Weather ElementAverage
Visibility6.2 mi
Wind DirectionWSW (233.6 °)

Weather ElementTotal
Precipitation---
Heating Degree Days15.9 (Base 65)
Averaged from 47 records on January 31, 2013
WEATHER CONDITIONS BREAKOUT
WIND DIRECTION BREAKOUT
WEATHER BY HOUR - JANUARY 31, 2013
[ °C ]   °F
Local TimeTemperatureDewpointHumidityBarometerVisibilityWind DirectionWind SpeedGust SpeedPrecipitationEventsConditions
12:30 AM42.8 °F41.0 °F93 %30.30 in6.2 miSSW (200°)5.8 mph
1:00 AM44.6 °F42.8 °F93 %30.30 in6.2 miSSW (200°)8.1 mph
1:30 AM44.6 °F44.6 °F100 %30.30 in6.2 miSSW (200°)9.2 mph
2:00 AM46.4 °F44.6 °F93 %30.27 in6.2 miSSW (210°)8.1 mphMostly Cloudy
2:30 AM46.4 °F44.6 °F93 %30.27 in6.2 miSW (220°)9.2 mphScattered Clouds
3:00 AM46.4 °F44.6 °F93 %30.27 in6.2 miSSW (210°)9.2 mphMostly Cloudy
3:30 AM48.2 °F46.4 °F93 %30.27 in6.2 miSW (220°)12.7 mphOvercast
4:00 AM48.2 °F46.4 °F93 %30.24 in6.2 miSW (220°)12.7 mphMostly Cloudy
4:30 AM48.2 °F46.4 °F93 %30.24 in6.2 miSW (220°)13.8 mphMostly Cloudy
5:00 AM48.2 °F46.4 °F93 %30.21 in6.2 miSW (220°)11.5 mphMostly Cloudy
5:30 AM50.0 °F46.4 °F87 %30.21 in6.2 miSW (220°)13.8 mphOvercast
6:00 AM50.0 °F48.2 °F94 %30.21 in6.2 miSW (220°)13.8 mphOvercast
6:30 AM50.0 °F48.2 °F94 %30.21 in6.2 miSW (230°)13.8 mphOvercast
7:00 AM51.8 °F46.4 °F82 %30.21 in6.2 miWSW (240°)16.1 mphOvercast
7:30 AM50.0 °F46.4 °F87 %30.21 in6.2 miWSW (240°)13.8 mphMostly Cloudy
8:00 AM50.0 °F46.4 °F87 %30.21 in6.2 miWSW (240°)15.0 mphMostly Cloudy
8:30 AM50.0 °F46.4 °F87 %30.21 in6.2 miWSW (240°)15.0 mphMostly Cloudy
9:00 AM50.0 °F46.4 °F87 %30.21 in6.2 miWSW (240°)15.0 mph
9:30 AM51.8 °F46.4 °F82 %30.21 in6.2 miWSW (240°)13.8 mph
10:00 AM51.8 °F48.2 °F88 %30.21 in6.2 miWSW (240°)16.1 mph
10:30 AM53.6 °F48.2 °F82 %30.24 in6.2 miWSW (240°)18.4 mphPartly Cloudy
11:00 AM53.6 °F50.0 °F88 %30.24 in6.2 miWSW (240°)17.3 mphMostly Cloudy
11:30 AM53.6 °F48.2 °F82 %30.24 in6.2 miWSW (240°)19.6 mphOvercast
12:00 PM53.6 °F48.2 °F82 %30.24 in6.2 miWSW (250°)16.1 mphMostly Cloudy
12:30 PM53.6 °F48.2 °F82 %30.24 in6.2 miWSW (240°)17.3 mphOvercast
1:00 PM53.6 °F48.2 °F82 %30.24 in6.2 miWSW (250°)17.3 mphOvercast
1:30 PM53.6 °F48.2 °F82 %30.24 in6.2 miWSW (240°)17.3 mphOvercast
2:00 PM53.6 °F48.2 °F82 %30.24 in6.2 miWSW (250°)19.6 mphOvercast
2:30 PM53.6 °F48.2 °F82 %30.24 in6.2 miWest (260°)19.6 mphOvercast
3:00 PM55.4 °F48.2 °F77 %30.24 in6.2 miWest (260°)21.9 mphMostly Cloudy
3:30 PM55.4 °F48.2 °F77 %30.24 in6.2 miWest (260°)16.1 mphOvercast
4:00 PM53.6 °F50.0 °F88 %30.21 in6.2 miWSW (250°)15.0 mphOvercast
4:30 PM53.6 °F50.0 °F88 %30.21 in6.2 miWSW (250°)13.8 mphOvercast
5:00 PM53.6 °F50.0 °F88 %30.21 in6.2 miWSW (250°)13.8 mphMostly Cloudy
5:30 PM53.6 °F50.0 °F88 %30.21 in6.2 miWSW (250°)12.7 mphOvercast
6:00 PM53.6 °F50.0 °F88 %30.21 in6.2 miWSW (240°)13.8 mphOvercast
6:30 PM51.8 °F48.2 °F88 %30.21 in6.2 miWSW (250°)12.7 mphOvercast
7:00 PM51.8 °F50.0 °F94 %30.21 in6.2 miWSW (240°)13.8 mphOvercast
7:30 PM51.8 °F50.0 °F94 %30.21 in6.2 miWSW (240°)13.8 mphMostly Cloudy
8:00 PM51.8 °F50.0 °F94 %30.21 in6.2 miWSW (240°)12.7 mphMostly Cloudy
8:30 PM51.8 °F50.0 °F94 %30.21 in6.2 miWSW (240°)11.5 mphRainLight Rain
9:00 PM51.8 °F50.0 °F94 %30.21 in6.2 miSW (220°)10.4 mphRainLight Rain
9:30 PM51.8 °F50.0 °F94 %30.18 in6.2 miSW (220°)8.1 mphMostly Cloudy
10:00 PM51.8 °F50.0 °F94 %30.18 in5.6 miSW (220°)12.7 mphRainLight Rain
10:30 PM50.0 °F50.0 °F100 %30.18 in6.2 miSW (220°)12.7 mphRainLight Rain
11:00 PM51.8 °F50.0 °F94 %30.15 in6.2 miSW (220°)15.0 mphRainLight Rain
11:30 PM50.0 °F50.0 °F100 %30.15 in6.2 miSW (230°)12.7 mphOvercast
Hourly data recorded from LFRZ, located miles away from St.-Pere-en-Retz, France







STORIES FROM OUR PARTNERS